Time,TemperatureF,DewpointF,PressureIn,WindDirection,WindDirectionDegrees,WindSpeedMPH,WindSpeedGustMPH,Humidity,HourlyPrecipIn,Conditions,Clouds,dailyrainin,SoftwareType,DateUTC
2013-04-22 00:01:00,45.7,22.1,30.48,ENE,74,10.0,12.0,39,0.00,,,0.00,meteohub,2013-04-22 04:01:00,
2013-04-22 00:02:00,45.5,21.9,30.48,ESE,112,7.0,12.0,39,0.00,,,0.00,meteohub,2013-04-22 04:02:00,
2013-04-22 00:03:00,45.5,21.9,30.48,SE,131,5.0,12.0,39,0.00,,,0.00,meteohub,2013-04-22 04:03:00,
2013-04-22 00:05:00,45.5,21.9,30.48,ESE,121,10.0,12.0,39,0.00,,,0.00,meteohub,2013-04-22 04:05:00,
2013-04-22 00:10:00,45.3,22.5,30.48,NE,39,5.0,14.0,40,0.00,,,0.00,meteohub,2013-04-22 04:10:00,
2013-04-22 00:15:00,45.3,22.5,30.48,SE,139,3.0,14.0,40,0.00,,,0.00,meteohub,2013-04-22 04:15:00,
2013-04-22 00:20:00,45.3,22.5,30.47,East,90,10.0,14.0,40,0.00,,,0.00,meteohub,2013-04-22 04:20:00,
2013-04-22 00:26:00,45.3,23.0,30.47,ESE,121,3.0,12.0,41,0.00,,,0.00,meteohub,2013-04-22 04:26:00,
2013-04-22 00:31:00,45.3,23.0,30.47,SE,146,1.0,12.0,41,0.00,,,0.00,meteohub,2013-04-22 04:31:00,
2013-04-22 00:36:00,45.3,23.0,30.47,East,90,4.0,12.0,41,0.00,,,0.00,meteohub,2013-04-22 04:36:00,
2013-04-22 00:41:00,45.3,23.0,30.47,East,90,9.0,13.0,41,0.00,,,0.00,meteohub,2013-04-22 04:41:00,
2013-04-22 00:46:00,45.5,23.7,30.47,ESE,120,2.0,13.0,42,0.00,,,0.00,meteohub,2013-04-22 04:46:00,
2013-04-22 00:51:00,45.5,23.7,30.47,East,87,6.0,13.0,42,0.00,,,0.00,meteohub,2013-04-22 04:51:00,
2013-04-22 00:56:00,45.5,23.7,30.46,East,92,7.0,15.0,42,0.00,,,0.00,meteohub,2013-04-22 04:56:00,
2013-04-22 01:01:00,45.5,23.7,30.47,SE,131,4.0,15.0,42,0.00,,,0.00,meteohub,2013-04-22 05:01:00,
2013-04-22 01:06:00,45.7,23.9,30.47,SE,127,12.0,15.0,42,0.00,,,0.00,meteohub,2013-04-22 05:06:00,
2013-04-22 01:11:00,45.7,23.9,30.47,ESE,103,3.0,13.0,42,0.00,,,0.00,meteohub,2013-04-22 05:11:00,
2013-04-22 01:16:00,45.7,23.9,30.46,East,96,12.0,13.0,42,0.00,,,0.00,meteohub,2013-04-22 05:16:00,
2013-04-22 01:21:00,45.7,24.4,30.46,SSE,162,4.0,13.0,43,0.00,,,0.00,meteohub,2013-04-22 05:21:00,
2013-04-22 01:26:00,45.5,23.7,30.46,SSE,152,7.0,12.0,42,0.00,,,0.00,meteohub,2013-04-22 05:26:00,
2013-04-22 01:32:00,45.3,24.1,30.45,East,99,4.0,12.0,43,0.00,,,0.00,meteohub,2013-04-22 05:32:00,
2013-04-22 01:37:00,45.3,24.1,30.45,SE,138,6.0,12.0,43,0.00,,,0.00,meteohub,2013-04-22 05:37:00,
2013-04-22 01:42:00,45.3,24.1,30.45,ESE,114,5.0,13.0,43,0.00,,,0.00,meteohub,2013-04-22 05:42:00,
2013-04-22 01:47:00,45.3,24.6,30.45,East,92,6.0,14.0,44,0.00,,,0.00,meteohub,2013-04-22 05:47:00,
2013-04-22 01:52:00,45.3,24.6,30.45,ENE,72,7.0,14.0,44,0.00,,,0.00,meteohub,2013-04-22 05:52:00,
2013-04-22 01:57:00,45.5,24.8,30.45,East,94,8.0,14.0,44,0.00,,,0.00,meteohub,2013-04-22 05:57:00,
2013-04-22 02:02:00,45.5,24.3,30.45,ESE,110,2.0,14.0,43,0.00,,,0.00,meteohub,2013-04-22 06:02:00,
2013-04-22 02:07:00,45.5,24.8,30.45,East,93,6.0,14.0,44,0.00,,,0.00,meteohub,2013-04-22 06:07:00,
2013-04-22 02:12:00,45.5,24.8,30.45,East,90,2.0,17.0,44,0.00,,,0.00,meteohub,2013-04-22 06:12:00,
2013-04-22 02:17:00,45.5,24.8,30.44,ESE,113,4.0,17.0,44,0.00,,,0.00,meteohub,2013-04-22 06:17:00,
2013-04-22 02:22:00,45.5,24.8,30.44,East,100,9.0,13.0,44,0.00,,,0.00,meteohub,2013-04-22 06:22:00,
2013-04-22 02:27:00,45.7,25.0,30.44,NE,41,4.0,13.0,44,0.00,,,0.00,meteohub,2013-04-22 06:27:00,
2013-04-22 02:32:00,45.5,24.8,30.44,ESE,102,6.0,13.0,44,0.00,,,0.00,meteohub,2013-04-22 06:32:00,
2013-04-22 02:37:00,45.3,24.6,30.44,East,101,6.0,13.0,44,0.00,,,0.00,meteohub,2013-04-22 06:37:00,
2013-04-22 02:42:00,45.3,24.6,30.44,ESE,104,10.0,12.0,44,0.00,,,0.00,meteohub,2013-04-22 06:42:00,
2013-04-22 02:47:00,45.3,24.6,30.44,East,97,4.0,12.0,44,0.00,,,0.00,meteohub,2013-04-22 06:47:00,
2013-04-22 02:52:00,45.1,25.0,30.44,ESE,115,3.0,12.0,45,0.00,,,0.00,meteohub,2013-04-22 06:52:00,
2013-04-22 02:57:00,45.1,25.0,30.44,SSE,160,3.0,16.0,45,0.00,,,0.00,meteohub,2013-04-22 06:57:00,
2013-04-22 03:02:00,45.0,25.0,30.44,SE,139,5.0,16.0,45,0.00,,,0.00,meteohub,2013-04-22 07:02:00,
2013-04-22 03:07:00,44.8,25.3,30.44,ENE,68,2.0,16.0,46,0.00,,,0.00,meteohub,2013-04-22 07:07:00,
2013-04-22 03:12:00,44.6,24.6,30.44,SE,141,4.0,12.0,45,0.00,,,0.00,meteohub,2013-04-22 07:12:00,
2013-04-22 03:17:00,44.4,24.4,30.43,SSW,200,4.0,14.0,45,0.00,,,0.00,meteohub,2013-04-22 07:17:00,
2013-04-22 03:22:00,44.2,24.8,30.43,SE,145,6.0,15.0,46,0.00,,,0.00,meteohub,2013-04-22 07:22:00,
2013-04-22 03:27:00,44.2,24.8,30.43,SE,143,3.0,16.0,46,0.00,,,0.00,meteohub,2013-04-22 07:27:00,
2013-04-22 03:32:00,44.1,24.6,30.43,ESE,104,4.0,16.0,46,0.00,,,0.00,meteohub,2013-04-22 07:32:00,
2013-04-22 03:37:00,44.1,25.2,30.43,SSE,163,3.0,16.0,47,0.00,,,0.00,meteohub,2013-04-22 07:37:00,
2013-04-22 03:42:00,43.9,25.0,30.43,SSE,159,2.0,15.0,47,0.00,,,0.00,meteohub,2013-04-22 07:42:00,
2013-04-22 03:47:00,43.9,24.4,30.43,SE,135,6.0,15.0,46,0.00,,,0.00,meteohub,2013-04-22 07:47:00,
2013-04-22 03:52:00,43.9,25.0,30.43,ENE,59,3.0,19.0,47,0.00,,,0.00,meteohub,2013-04-22 07:52:00,
2013-04-22 03:57:00,43.7,24.8,30.43,SE,127,3.0,19.0,47,0.00,,,0.00,meteohub,2013-04-22 07:57:00,
2013-04-22 04:02:00,43.5,24.6,30.43,SE,125,8.0,14.0,47,0.00,,,0.00,meteohub,2013-04-22 08:02:00,
2013-04-22 04:07:00,43.5,24.6,30.43,East,94,9.0,12.0,47,0.00,,,0.00,meteohub,2013-04-22 08:07:00,
2013-04-22 04:12:00,43.5,24.6,30.43,ESE,103,7.0,15.0,47,0.00,,,0.00,meteohub,2013-04-22 08:12:00,
2013-04-22 04:17:00,43.3,24.4,30.43,SE,125,8.0,15.0,47,0.00,,,0.00,meteohub,2013-04-22 08:17:00,
2013-04-22 04:22:00,43.3,24.4,30.43,ESE,120,11.0,12.0,47,0.00,,,0.00,meteohub,2013-04-22 08:22:00,
2013-04-22 04:27:00,43.3,24.4,30.43,ESE,106,6.0,14.0,47,0.00,,,0.00,meteohub,2013-04-22 08:27:00,
2013-04-22 04:32:00,43.3,25.0,30.43,ENE,77,3.0,14.0,48,0.00,,,0.00,meteohub,2013-04-22 08:32:00,
2013-04-22 04:37:00,43.3,24.4,30.43,South,191,3.0,14.0,47,0.00,,,0.00,meteohub,2013-04-22 08:37:00,
2013-04-22 04:42:00,43.3,24.4,30.43,ESE,123,7.0,19.0,47,0.00,,,0.00,meteohub,2013-04-22 08:42:00,
2013-04-22 04:47:00,43.3,23.9,30.43,SSE,149,7.0,19.0,46,0.00,,,0.00,meteohub,2013-04-22 08:47:00,
2013-04-22 04:52:00,43.2,24.3,30.43,South,180,8.0,19.0,47,0.00,,,0.00,meteohub,2013-04-22 08:52:00,
2013-04-22 04:57:00,43.2,24.3,30.43,SE,127,3.0,15.0,47,0.00,,,0.00,meteohub,2013-04-22 08:57:00,
2013-04-22 05:02:00,43.2,24.3,30.43,WSW,255,1.0,15.0,47,0.00,,,0.00,meteohub,2013-04-22 09:02:00,
2013-04-22 05:07:00,43.2,24.3,30.43,ESE,110,4.0,14.0,47,0.00,,,0.00,meteohub,2013-04-22 09:07:00,
2013-04-22 05:12:00,43.0,24.1,30.43,SE,132,5.0,13.0,47,0.00,,,0.00,meteohub,2013-04-22 09:12:00,
2013-04-22 05:17:00,43.0,24.1,30.43,ESE,102,3.0,13.0,47,0.00,,,0.00,meteohub,2013-04-22 09:17:00,
2013-04-22 05:22:00,43.0,24.1,30.43,South,174,2.0,13.0,47,0.00,,,0.00,meteohub,2013-04-22 09:22:00,
2013-04-22 05:27:00,42.8,23.9,30.43,West,274,1.0,12.0,47,0.00,,,0.00,meteohub,2013-04-22 09:27:00,
2013-04-22 05:32:00,42.6,23.7,30.43,East,80,2.0,12.0,47,0.00,,,0.00,meteohub,2013-04-22 09:32:00,
2013-04-22 05:37:00,42.6,23.7,30.43,South,176,5.0,12.0,47,0.00,,,0.00,meteohub,2013-04-22 09:37:00,
2013-04-22 05:42:00,42.6,23.7,30.43,SSE,157,1.0,12.0,47,0.00,,,0.00,meteohub,2013-04-22 09:42:00,
2013-04-22 05:47:00,42.6,24.3,30.43,ESE,117,9.0,11.0,48,0.00,,,0.00,meteohub,2013-04-22 09:47:00,
2013-04-22 05:53:00,42.4,23.7,30.43,SE,124,5.0,11.0,47,0.00,,,0.00,meteohub,2013-04-22 09:53:00,
2013-04-22 05:58:00,42.4,24.1,30.43,SE,141,3.0,12.0,48,0.00,,,0.00,meteohub,2013-04-22 09:58:00,
2013-04-22 06:03:00,42.4,24.1,30.43,East,98,3.0,13.0,48,0.00,,,0.00,meteohub,2013-04-22 10:03:00,
2013-04-22 06:08:00,42.3,23.9,30.43,SSE,159,9.0,13.0,48,0.00,,,0.00,meteohub,2013-04-22 10:08:00,
2013-04-22 06:13:00,42.3,23.9,30.43,SE,135,3.0,13.0,48,0.00,,,0.00,meteohub,2013-04-22 10:13:00,
2013-04-22 06:18:00,42.3,23.9,30.43,ESE,112,4.0,16.0,48,0.00,,,0.00,meteohub,2013-04-22 10:18:00,
2013-04-22 06:23:00,42.3,23.9,30.43,East,79,5.0,18.0,48,0.00,,,0.00,meteohub,2013-04-22 10:23:00,
2013-04-22 06:28:00,42.3,23.9,30.43,East,92,4.0,18.0,48,0.00,,,0.00,meteohub,2013-04-22 10:28:00,
2013-04-22 06:33:00,42.3,23.9,30.43,South,173,6.0,18.0,48,0.00,,,0.00,meteohub,2013-04-22 10:33:00,
2013-04-22 06:38:00,42.3,23.9,30.43,ESE,123,10.0,13.0,48,0.00,,,0.00,meteohub,2013-04-22 10:38:00,
2013-04-22 06:43:00,42.3,24.4,30.44,ESE,102,7.0,14.0,49,0.00,,,0.00,meteohub,2013-04-22 10:43:00,
2013-04-22 06:48:00,42.1,24.3,30.44,South,169,7.0,14.0,49,0.00,,,0.00,meteohub,2013-04-22 10:48:00,
2013-04-22 06:53:00,42.1,24.3,30.44,ESE,112,6.0,14.0,49,0.00,,,0.00,meteohub,2013-04-22 10:53:00,
2013-04-22 06:58:00,42.1,24.8,30.44,ESE,105,7.0,15.0,50,0.00,,,0.00,meteohub,2013-04-22 10:58:00,
2013-04-22 07:04:00,42.1,24.3,30.44,SE,138,5.0,15.0,49,0.00,,,0.00,meteohub,2013-04-22 11:04:00,
2013-04-22 07:09:00,42.1,24.8,30.44,South,172,9.0,12.0,50,0.00,,,0.00,meteohub,2013-04-22 11:09:00,
2013-04-22 07:14:00,42.1,24.8,30.44,ESE,102,7.0,17.0,50,0.00,,,0.00,meteohub,2013-04-22 11:14:00,
2013-04-22 07:19:00,42.1,24.8,30.43,East,95,6.0,18.0,50,0.00,,,0.00,meteohub,2013-04-22 11:19:00,
2013-04-22 07:24:00,42.1,24.8,30.43,SSE,149,5.0,18.0,50,0.00,,,0.00,meteohub,2013-04-22 11:24:00,
2013-04-22 07:29:00,42.3,25.0,30.44,ENE,73,12.0,18.0,50,0.00,,,0.00,meteohub,2013-04-22 11:29:00,
2013-04-22 07:34:00,42.3,25.0,30.44,ESE,103,9.0,17.0,50,0.00,,,0.00,meteohub,2013-04-22 11:34:00,
2013-04-22 07:39:00,42.3,25.0,30.44,ESE,118,9.0,17.0,50,0.00,,,0.00,meteohub,2013-04-22 11:39:00,
2013-04-22 07:44:00,42.4,25.2,30.44,ESE,110,5.0,18.0,50,0.00,,,0.00,meteohub,2013-04-22 11:44:00,
2013-04-22 07:49:00,42.6,25.3,30.44,South,173,4.0,18.0,50,0.00,,,0.00,meteohub,2013-04-22 11:49:00,
2013-04-22 07:54:00,42.8,25.0,30.44,ESE,109,7.0,18.0,49,0.00,,,0.00,meteohub,2013-04-22 11:54:00,
2013-04-22 07:59:00,43.2,25.3,30.44,SE,131,7.0,17.0,49,0.00,,,0.00,meteohub,2013-04-22 11:59:00,
2013-04-22 08:04:00,43.3,25.5,30.44,SSE,148,3.0,17.0,49,0.00,,,0.00,meteohub,2013-04-22 12:04:00,
2013-04-22 08:09:00,43.5,25.7,30.44,ESE,108,8.0,17.0,49,0.00,,,0.00,meteohub,2013-04-22 12:09:00,
2013-04-22 08:14:00,43.9,26.4,30.44,ESE,121,6.0,19.0,50,0.00,,,0.00,meteohub,2013-04-22 12:14:00,
2013-04-22 08:20:00,44.1,26.1,30.44,ESE,109,6.0,19.0,49,0.00,,,0.00,meteohub,2013-04-22 12:20:00,
2013-04-22 08:25:00,44.2,26.2,30.44,ESE,108,5.0,16.0,49,0.00,,,0.00,meteohub,2013-04-22 12:25:00,
2013-04-22 08:30:00,44.4,25.9,30.44,SE,129,7.0,15.0,48,0.00,,,0.00,meteohub,2013-04-22 12:30:00,
2013-04-22 08:35:00,44.8,26.2,30.44,ENE,72,2.0,16.0,48,0.00,,,0.00,meteohub,2013-04-22 12:35:00,
2013-04-22 08:40:00,45.0,26.4,30.44,SSE,161,6.0,16.0,48,0.00,,,0.00,meteohub,2013-04-22 12:40:00,
2013-04-22 08:45:00,45.3,26.2,30.44,East,91,3.0,16.0,47,0.00,,,0.00,meteohub,2013-04-22 12:45:00,
2013-04-22 08:50:00,45.7,26.6,30.44,ESE,118,3.0,19.0,47,0.00,,,0.00,meteohub,2013-04-22 12:50:00,
2013-04-22 08:55:00,46.2,26.6,30.44,ESE,122,7.0,19.0,46,0.00,,,0.00,meteohub,2013-04-22 12:55:00,
2013-04-22 09:00:00,46.4,27.3,30.44,ESE,113,6.0,19.0,47,0.00,,,0.00,meteohub,2013-04-22 13:00:00,
2013-04-22 09:05:00,46.8,26.6,30.44,SSE,163,4.0,14.0,45,0.00,,,0.00,meteohub,2013-04-22 13:05:00,
2013-04-22 09:10:00,46.9,26.8,30.44,South,172,5.0,14.0,45,0.00,,,0.00,meteohub,2013-04-22 13:10:00,
2013-04-22 09:15:00,47.1,26.8,30.44,East,100,10.0,13.0,45,0.00,,,0.00,meteohub,2013-04-22 13:15:00,
2013-04-22 09:20:00,47.5,27.7,30.45,East,80,9.0,14.0,46,0.00,,,0.00,meteohub,2013-04-22 13:20:00,
2013-04-22 09:25:00,47.7,26.8,30.45,SE,145,6.0,16.0,44,0.00,,,0.00,meteohub,2013-04-22 13:25:00,
2013-04-22 09:31:00,47.5,26.6,30.44,ESE,107,10.0,16.0,44,0.00,,,0.00,meteohub,2013-04-22 13:31:00,
2013-04-22 09:36:00,47.8,27.0,30.44,ENE,72,4.0,18.0,44,0.00,,,0.00,meteohub,2013-04-22 13:36:00,
2013-04-22 09:41:00,48.4,27.5,30.45,ESE,112,6.0,18.0,44,0.00,,,0.00,meteohub,2013-04-22 13:41:00,
2013-04-22 09:46:00,48.6,27.1,30.44,SE,124,4.0,15.0,43,0.00,,,0.00,meteohub,2013-04-22 13:46:00,
2013-04-22 09:51:00,48.4,27.0,30.44,ESE,105,11.0,13.0,43,0.00,,,0.00,meteohub,2013-04-22 13:51:00,
2013-04-22 09:56:00,48.4,27.5,30.45,ESE,106,2.0,16.0,44,0.00,,,0.00,meteohub,2013-04-22 13:56:00,
2013-04-22 10:01:00,48.6,27.1,30.44,WSW,246,4.0,16.0,43,0.00,,,0.00,meteohub,2013-04-22 14:01:00,
2013-04-22 10:06:00,48.7,27.9,30.44,ESE,108,9.0,16.0,44,0.00,,,0.00,meteohub,2013-04-22 14:06:00,
2013-04-22 10:11:00,48.9,27.3,30.45,ESE,115,5.0,14.0,43,0.00,,,0.00,meteohub,2013-04-22 14:11:00,
2013-04-22 10:16:00,48.9,28.0,30.45,ESE,113,2.0,14.0,44,0.00,,,0.00,meteohub,2013-04-22 14:16:00,
2013-04-22 10:21:00,49.5,28.9,30.45,SE,127,4.0,14.0,45,0.00,,,0.00,meteohub,2013-04-22 14:21:00,
2013-04-22 10:26:00,50.2,28.6,30.45,NNE,22,1.0,12.0,43,0.00,,,0.00,meteohub,2013-04-22 14:26:00,
2013-04-22 10:31:00,50.5,28.2,30.45,East,96,4.0,11.0,42,0.00,,,0.00,meteohub,2013-04-22 14:31:00,
2013-04-22 10:37:00,50.7,28.4,30.45,ESE,108,2.0,15.0,42,0.00,,,0.00,meteohub,2013-04-22 14:37:00,
2013-04-22 10:42:00,51.3,28.9,30.45,ENE,75,2.0,15.0,42,0.00,,,0.00,meteohub,2013-04-22 14:42:00,
2013-04-22 10:47:00,52.0,28.9,30.45,SSE,153,3.0,10.0,41,0.00,,,0.00,meteohub,2013-04-22 14:47:00,
2013-04-22 10:52:00,52.3,28.8,30.45,SE,142,5.0,13.0,40,0.00,,,0.00,meteohub,2013-04-22 14:52:00,
2013-04-22 10:57:00,52.7,30.7,30.45,West,261,5.0,14.0,43,0.00,,,0.00,meteohub,2013-04-22 14:57:00,
2013-04-22 11:02:00,53.2,27.7,30.45,NE,56,5.0,14.0,37,0.00,,,0.00,meteohub,2013-04-22 15:02:00,
2013-04-22 11:07:00,52.9,28.0,30.45,ESE,103,6.0,14.0,38,0.00,,,0.00,meteohub,2013-04-22 15:07:00,
2013-04-22 11:12:00,53.1,27.5,30.45,SSW,195,5.0,14.0,37,0.00,,,0.00,meteohub,2013-04-22 15:12:00,
2013-04-22 11:17:00,53.2,28.2,30.45,ESE,121,2.0,17.0,38,0.00,,,0.00,meteohub,2013-04-22 15:17:00,
2013-04-22 11:22:00,53.8,28.8,30.44,ENE,74,3.0,17.0,38,0.00,,,0.00,meteohub,2013-04-22 15:22:00,
2013-04-22 11:27:00,54.1,29.7,30.44,SE,144,2.0,17.0,39,0.00,,,0.00,meteohub,2013-04-22 15:27:00,
2013-04-22 11:32:00,54.7,29.5,30.44,SE,126,3.0,13.0,38,0.00,,,0.00,meteohub,2013-04-22 15:32:00,
2013-04-22 11:37:00,55.2,29.5,30.43,ESE,120,3.0,9.0,37,0.00,,,0.00,meteohub,2013-04-22 15:37:00,
2013-04-22 11:42:00,55.0,29.3,30.43,South,188,1.0,9.0,37,0.00,,,0.00,meteohub,2013-04-22 15:42:00,
2013-04-22 11:47:00,55.0,27.9,30.43,East,91,6.0,11.0,35,0.00,,,0.00,meteohub,2013-04-22 15:47:00,
2013-04-22 11:52:00,55.0,27.1,30.43,ESE,114,5.0,14.0,34,0.00,,,0.00,meteohub,2013-04-22 15:52:00,
2013-04-22 11:57:00,55.6,29.1,30.43,ESE,102,3.0,14.0,36,0.00,,,0.00,meteohub,2013-04-22 15:57:00,
2013-04-22 12:02:00,55.4,28.2,30.43,SE,127,4.0,14.0,35,0.00,,,0.00,meteohub,2013-04-22 16:02:00,
2013-04-22 12:07:00,55.8,29.8,30.43,SSE,163,3.0,10.0,37,0.00,,,0.00,meteohub,2013-04-22 16:07:00,
2013-04-22 12:12:00,56.7,27.9,30.42,East,84,5.0,9.0,33,0.00,,,0.00,meteohub,2013-04-22 16:12:00,
2013-04-22 12:17:00,57.0,28.2,30.42,SE,136,3.0,8.0,33,0.00,,,0.00,meteohub,2013-04-22 16:17:00,
2013-04-22 12:22:00,57.6,27.9,30.42,ESE,116,7.0,8.0,32,0.00,,,0.00,meteohub,2013-04-22 16:22:00,
2013-04-22 12:27:00,57.0,28.9,30.41,SW,233,1.0,8.0,34,0.00,,,0.00,meteohub,2013-04-22 16:27:00,
2013-04-22 12:32:00,57.6,28.6,30.41,ESE,118,4.0,11.0,33,0.00,,,0.00,meteohub,2013-04-22 16:32:00,
2013-04-22 12:37:00,57.6,31.5,30.41,East,81,4.0,11.0,37,0.00,,,0.00,meteohub,2013-04-22 16:37:00,
2013-04-22 12:42:00,57.6,27.1,30.41,SSE,167,4.0,10.0,31,0.00,,,0.00,meteohub,2013-04-22 16:42:00,
2013-04-22 12:47:00,57.9,25.9,30.40,ENE,62,4.0,10.0,29,0.00,,,0.00,meteohub,2013-04-22 16:47:00,
2013-04-22 12:52:00,58.1,29.8,30.40,SE,134,2.0,10.0,34,0.00,,,0.00,meteohub,2013-04-22 16:52:00,
2013-04-22 12:57:00,58.5,27.9,30.40,South,191,0.0,8.0,31,0.00,,,0.00,meteohub,2013-04-22 16:57:00,
2013-04-22 13:02:00,58.8,25.7,30.40,SSE,149,2.0,10.0,28,0.00,,,0.00,meteohub,2013-04-22 17:02:00,
2013-04-22 13:07:00,59.2,26.1,30.40,SE,134,2.0,10.0,28,0.00,,,0.00,meteohub,2013-04-22 17:07:00,
2013-04-22 13:12:00,58.8,25.0,30.40,NE,35,2.0,10.0,27,0.00,,,0.00,meteohub,2013-04-22 17:12:00,
2013-04-22 13:17:00,59.0,25.9,30.39,SE,124,5.0,10.0,28,0.00,,,0.00,meteohub,2013-04-22 17:17:00,
2013-04-22 13:22:00,58.6,27.3,30.39,SE,132,2.0,10.0,30,0.00,,,0.00,meteohub,2013-04-22 17:22:00,
2013-04-22 13:27:00,59.2,25.2,30.39,South,183,6.0,8.0,27,0.00,,,0.00,meteohub,2013-04-22 17:27:00,
2013-04-22 13:32:00,59.0,24.1,30.38,East,91,2.0,13.0,26,0.00,,,0.00,meteohub,2013-04-22 17:32:00,
2013-04-22 13:37:00,59.5,26.4,30.38,SSE,150,0.0,13.0,28,0.00,,,0.00,meteohub,2013-04-22 17:37:00,
2013-04-22 13:42:00,59.5,26.4,30.38,ESE,119,5.0,13.0,28,0.00,,,0.00,meteohub,2013-04-22 17:42:00,
2013-04-22 13:47:00,59.2,24.3,30.38,SW,228,0.0,8.0,26,0.00,,,0.00,meteohub,2013-04-22 17:47:00,
2013-04-22 13:52:00,59.7,24.8,30.37,NW,312,3.0,8.0,26,0.00,,,0.00,meteohub,2013-04-22 17:52:00,
2013-04-22 13:57:00,60.4,25.3,30.37,NNW,332,2.0,7.0,26,0.00,,,0.00,meteohub,2013-04-22 17:57:00,
2013-04-22 14:02:00,60.8,26.6,30.37,SE,127,1.0,8.0,27,0.00,,,0.00,meteohub,2013-04-22 18:02:00,
2013-04-22 14:07:00,60.8,25.7,30.37,ESE,108,2.0,8.0,26,0.00,,,0.00,meteohub,2013-04-22 18:07:00,
2013-04-22 14:12:00,60.4,20.3,30.36,NNW,334,4.0,8.0,21,0.00,,,0.00,meteohub,2013-04-22 18:12:00,
2013-04-22 14:17:00,60.6,22.6,30.36,SSW,203,2.0,8.0,23,0.00,,,0.00,meteohub,2013-04-22 18:17:00,
2013-04-22 14:22:00,60.8,21.7,30.36,WNW,282,1.0,9.0,22,0.00,,,0.00,meteohub,2013-04-22 18:22:00,
2013-04-22 14:27:00,61.2,21.9,30.36,East,79,3.0,9.0,22,0.00,,,0.00,meteohub,2013-04-22 18:27:00,
2013-04-22 14:32:00,61.2,23.0,30.36,East,91,5.0,9.0,23,0.00,,,0.00,meteohub,2013-04-22 18:32:00,
2013-04-22 14:37:00,60.8,20.7,30.35,South,174,1.0,8.0,21,0.00,,,0.00,meteohub,2013-04-22 18:37:00,
2013-04-22 14:42:00,61.0,22.8,30.35,ESE,103,0.0,8.0,23,0.00,,,0.00,meteohub,2013-04-22 18:42:00,
2013-04-22 14:47:00,61.2,20.8,30.35,East,93,10.0,11.0,21,0.00,,,0.00,meteohub,2013-04-22 18:47:00,
2013-04-22 14:52:00,60.6,22.6,30.35,SE,137,4.0,14.0,23,0.00,,,0.00,meteohub,2013-04-22 18:52:00,
2013-04-22 14:57:00,60.6,23.5,30.35,ENE,63,5.0,14.0,24,0.00,,,0.00,meteohub,2013-04-22 18:57:00,
2013-04-22 15:02:00,61.2,21.9,30.35,ESE,121,0.0,14.0,22,0.00,,,0.00,meteohub,2013-04-22 19:02:00,
2013-04-22 15:07:00,61.5,22.3,30.34,SE,145,6.0,11.0,22,0.00,,,0.00,meteohub,2013-04-22 19:07:00,
2013-04-22 15:12:00,61.9,22.6,30.34,East,80,0.0,8.0,22,0.00,,,0.00,meteohub,2013-04-22 19:12:00,
2013-04-22 15:17:00,61.9,25.7,30.34,East,100,6.0,8.0,25,0.00,,,0.00,meteohub,2013-04-22 19:17:00,
2013-04-22 15:22:00,61.9,22.6,30.33,East,95,8.0,8.0,22,0.00,,,0.00,meteohub,2013-04-22 19:22:00,
2013-04-22 15:27:00,61.9,28.4,30.33,ESE,105,4.0,9.0,28,0.00,,,0.00,meteohub,2013-04-22 19:27:00,
2013-04-22 15:32:00,61.9,23.7,30.33,NE,49,2.0,9.0,23,0.00,,,0.00,meteohub,2013-04-22 19:32:00,
2013-04-22 15:37:00,62.1,21.7,30.33,ENE,63,1.0,9.0,21,0.00,,,0.00,meteohub,2013-04-22 19:37:00,
2013-04-22 15:42:00,61.9,22.6,30.33,SE,129,3.0,12.0,22,0.00,,,0.00,meteohub,2013-04-22 19:42:00,
2013-04-22 15:47:00,61.5,21.2,30.33,SE,145,2.0,12.0,21,0.00,,,0.00,meteohub,2013-04-22 19:47:00,
2013-04-22 15:52:00,61.7,21.4,30.33,WSW,238,1.0,17.0,21,0.00,,,0.00,meteohub,2013-04-22 19:52:00,
2013-04-22 15:57:00,61.9,23.7,30.33,East,91,1.0,17.0,23,0.00,,,0.00,meteohub,2013-04-22 19:57:00,
2013-04-22 16:02:00,61.9,23.7,30.32,NE,53,1.0,8.0,23,0.00,,,0.00,meteohub,2013-04-22 20:02:00,
2013-04-22 16:07:00,62.4,19.6,30.32,NNE,33,1.0,8.0,19,0.00,,,0.00,meteohub,2013-04-22 20:07:00,
2013-04-22 16:12:00,62.4,21.9,30.32,ENE,78,1.0,8.0,21,0.00,,,0.00,meteohub,2013-04-22 20:12:00,
2013-04-22 16:17:00,62.1,18.0,30.32,East,96,0.0,8.0,18,0.00,,,0.00,meteohub,2013-04-22 20:17:00,
2013-04-22 16:22:00,61.7,17.8,30.32,South,188,1.0,8.0,18,0.00,,,0.00,meteohub,2013-04-22 20:22:00,
2013-04-22 16:27:00,61.9,18.0,30.32,SSW,200,2.0,8.0,18,0.00,,,0.00,meteohub,2013-04-22 20:27:00,
2013-04-22 16:32:00,62.2,23.0,30.32,ESE,112,2.0,9.0,22,0.00,,,0.00,meteohub,2013-04-22 20:32:00,
2013-04-22 16:37:00,62.2,21.7,30.31,South,171,0.0,9.0,21,0.00,,,0.00,meteohub,2013-04-22 20:37:00,
2013-04-22 16:42:00,62.4,19.6,30.31,ESE,105,1.0,9.0,19,0.00,,,0.00,meteohub,2013-04-22 20:42:00,
2013-04-22 16:47:00,62.4,18.3,30.31,NNE,25,0.0,9.0,18,0.00,,,0.00,meteohub,2013-04-22 20:47:00,
2013-04-22 16:52:00,63.0,18.9,30.31,East,79,3.0,9.0,18,0.00,,,0.00,meteohub,2013-04-22 20:52:00,
2013-04-22 16:57:00,62.8,18.7,30.30,SE,129,6.0,6.0,18,0.00,,,0.00,meteohub,2013-04-22 20:57:00,
2013-04-22 17:02:00,62.2,23.0,30.30,South,174,1.0,10.0,22,0.00,,,0.00,meteohub,2013-04-22 21:02:00,
2013-04-22 17:07:00,62.1,22.8,30.30,ESE,114,8.0,10.0,22,0.00,,,0.00,meteohub,2013-04-22 21:07:00,
2013-04-22 17:12:00,61.9,22.6,30.30,ESE,115,3.0,10.0,22,0.00,,,0.00,meteohub,2013-04-22 21:12:00,
2013-04-22 17:17:00,61.9,19.2,30.30,SW,231,2.0,9.0,19,0.00,,,0.00,meteohub,2013-04-22 21:17:00,
2013-04-22 17:22:00,61.5,23.4,30.30,ESE,122,3.0,9.0,23,0.00,,,0.00,meteohub,2013-04-22 21:22:00,
2013-04-22 17:27:00,61.7,20.1,30.30,South,177,4.0,10.0,20,0.00,,,0.00,meteohub,2013-04-22 21:27:00,
2013-04-22 17:32:00,61.9,18.0,30.30,East,86,5.0,10.0,18,0.00,,,0.00,meteohub,2013-04-22 21:32:00,
2013-04-22 17:37:00,61.7,19.0,30.29,ENE,71,1.0,10.0,19,0.00,,,0.00,meteohub,2013-04-22 21:37:00,
2013-04-22 17:42:00,61.9,19.2,30.29,West,277,0.0,8.0,19,0.00,,,0.00,meteohub,2013-04-22 21:42:00,
2013-04-22 17:47:00,61.9,20.3,30.29,SW,224,3.0,8.0,20,0.00,,,0.00,meteohub,2013-04-22 21:47:00,
2013-04-22 17:52:00,61.9,20.3,30.29,WSW,252,0.0,8.0,20,0.00,,,0.00,meteohub,2013-04-22 21:52:00,
2013-04-22 17:57:00,61.5,20.1,30.29,East,94,1.0,9.0,20,0.00,,,0.00,meteohub,2013-04-22 21:57:00,
2013-04-22 18:02:00,61.7,21.4,30.29,SE,127,5.0,9.0,21,0.00,,,0.00,meteohub,2013-04-22 22:02:00,
2013-04-22 18:07:00,61.3,21.0,30.29,SSE,160,0.0,9.0,21,0.00,,,0.00,meteohub,2013-04-22 22:07:00,
2013-04-22 18:12:00,61.3,23.2,30.29,ESE,118,0.0,8.0,23,0.00,,,0.00,meteohub,2013-04-22 22:12:00,
2013-04-22 18:17:00,61.3,22.1,30.29,South,184,2.0,8.0,22,0.00,,,0.00,meteohub,2013-04-22 22:17:00,
2013-04-22 18:22:00,61.0,22.8,30.29,ESE,109,7.0,13.0,23,0.00,,,0.00,meteohub,2013-04-22 22:22:00,
2013-04-22 18:27:00,60.4,23.5,30.29,East,90,6.0,13.0,24,0.00,,,0.00,meteohub,2013-04-22 22:27:00,
2013-04-22 18:32:00,60.4,26.2,30.29,SSE,159,0.0,13.0,27,0.00,,,0.00,meteohub,2013-04-22 22:32:00,
2013-04-22 18:37:00,60.4,24.4,30.29,SSW,192,6.0,10.0,25,0.00,,,0.00,meteohub,2013-04-22 22:37:00,
2013-04-22 18:42:00,60.4,25.3,30.29,ENE,70,2.0,10.0,26,0.00,,,0.00,meteohub,2013-04-22 22:42:00,
2013-04-22 18:47:00,60.3,24.3,30.29,ESE,117,1.0,10.0,25,0.00,,,0.00,meteohub,2013-04-22 22:47:00,
2013-04-22 18:52:00,60.3,25.2,30.29,SE,130,0.0,7.0,26,0.00,,,0.00,meteohub,2013-04-22 22:52:00,
2013-04-22 18:57:00,60.1,25.2,30.29,SE,132,0.0,7.0,26,0.00,,,0.00,meteohub,2013-04-22 22:57:00,
2013-04-22 19:02:00,60.1,25.2,30.29,SE,136,2.0,7.0,26,0.00,,,0.00,meteohub,2013-04-22 23:02:00,
2013-04-22 19:07:00,59.4,25.3,30.28,ESE,113,4.0,7.0,27,0.00,,,0.00,meteohub,2013-04-22 23:07:00,
2013-04-22 19:12:00,59.2,25.2,30.29,SE,128,0.0,7.0,27,0.00,,,0.00,meteohub,2013-04-22 23:12:00,
2013-04-22 19:17:00,58.8,25.7,30.29,ESE,104,3.0,7.0,28,0.00,,,0.00,meteohub,2013-04-22 23:17:00,
2013-04-22 19:22:00,58.5,26.2,30.28,SE,141,3.0,9.0,29,0.00,,,0.00,meteohub,2013-04-22 23:22:00,
2013-04-22 19:27:00,57.9,25.9,30.28,NW,319,1.0,9.0,29,0.00,,,0.00,meteohub,2013-04-22 23:27:00,
2013-04-22 19:32:00,57.7,27.3,30.28,ENE,78,0.0,9.0,31,0.00,,,0.00,meteohub,2013-04-22 23:32:00,
2013-04-22 19:37:00,57.4,25.3,30.28,SE,130,3.0,9.0,29,0.00,,,0.00,meteohub,2013-04-22 23:37:00,
2013-04-22 19:42:00,56.8,26.6,30.28,ESE,117,5.0,9.0,31,0.00,,,0.00,meteohub,2013-04-22 23:42:00,
2013-04-22 19:47:00,56.3,26.8,30.28,SE,129,3.0,9.0,32,0.00,,,0.00,meteohub,2013-04-22 23:47:00,
2013-04-22 19:52:00,55.8,26.4,30.28,ESE,108,3.0,10.0,32,0.00,,,0.00,meteohub,2013-04-22 23:52:00,
2013-04-22 19:57:00,55.0,26.4,30.28,ESE,109,4.0,13.0,33,0.00,,,0.00,meteohub,2013-04-22 23:57:00,
2013-04-22 20:02:00,54.7,26.1,30.28,East,88,8.0,13.0,33,0.00,,,0.00,meteohub,2013-04-23 00:02:00,
2013-04-22 20:07:00,54.3,27.3,30.28,West,276,2.0,14.0,35,0.00,,,0.00,meteohub,2013-04-23 00:07:00,
2013-04-22 20:12:00,54.0,27.0,30.28,ESE,113,8.0,14.0,35,0.00,,,0.00,meteohub,2013-04-23 00:12:00,
2013-04-22 20:17:00,53.6,27.3,30.28,East,85,9.0,14.0,36,0.00,,,0.00,meteohub,2013-04-23 00:17:00,
2013-04-22 20:22:00,53.2,27.0,30.28,ESE,117,5.0,11.0,36,0.00,,,0.00,meteohub,2013-04-23 00:22:00,
2013-04-22 20:27:00,53.1,28.0,30.28,ESE,117,6.0,11.0,38,0.00,,,0.00,meteohub,2013-04-23 00:27:00,
2013-04-22 20:32:00,52.7,27.9,30.28,SSE,156,3.0,11.0,38,0.00,,,0.00,meteohub,2013-04-23 00:32:00,
2013-04-22 20:37:00,52.7,27.9,30.28,East,99,8.0,16.0,38,0.00,,,0.00,meteohub,2013-04-23 00:37:00,
2013-04-22 20:42:00,52.5,28.2,30.28,SSE,150,5.0,16.0,39,0.00,,,0.00,meteohub,2013-04-23 00:42:00,
2013-04-22 20:47:00,52.3,28.8,30.28,NE,55,12.0,16.0,40,0.00,,,0.00,meteohub,2013-04-23 00:47:00,
2013-04-22 20:52:00,52.2,28.6,30.28,ESE,105,2.0,14.0,40,0.00,,,0.00,meteohub,2013-04-23 00:52:00,
2013-04-22 20:57:00,52.0,28.4,30.29,ESE,123,3.0,13.0,40,0.00,,,0.00,meteohub,2013-04-23 00:57:00,
2013-04-22 21:02:00,51.8,28.8,30.29,East,82,6.0,13.0,41,0.00,,,0.00,meteohub,2013-04-23 01:02:00,
2013-04-22 21:07:00,51.6,28.8,30.29,East,92,6.0,12.0,41,0.00,,,0.00,meteohub,2013-04-23 01:07:00,
2013-04-22 21:12:00,51.4,29.1,30.29,East,94,6.0,16.0,42,0.00,,,0.00,meteohub,2013-04-23 01:12:00,
2013-04-22 21:17:00,51.3,28.9,30.29,SSE,153,5.0,16.0,42,0.00,,,0.00,meteohub,2013-04-23 01:17:00,
2013-04-22 21:22:00,51.3,29.5,30.29,ESE,108,3.0,14.0,43,0.00,,,0.00,meteohub,2013-04-23 01:22:00,
2013-04-22 21:27:00,51.1,29.3,30.29,South,188,3.0,10.0,43,0.00,,,0.00,meteohub,2013-04-23 01:27:00,
2013-04-22 21:32:00,50.9,29.8,30.29,East,84,14.0,14.0,44,0.00,,,0.00,meteohub,2013-04-23 01:32:00,
2013-04-22 21:37:00,50.7,29.7,30.29,SSE,155,12.0,14.0,44,0.00,,,0.00,meteohub,2013-04-23 01:37:00,
2013-04-22 21:42:00,50.7,29.7,30.29,ESE,108,11.0,19.0,44,0.00,,,0.00,meteohub,2013-04-23 01:42:00,
2013-04-22 21:47:00,50.5,29.5,30.29,SE,127,9.0,19.0,44,0.00,,,0.00,meteohub,2013-04-23 01:47:00,
2013-04-22 21:52:00,50.5,30.0,30.29,East,90,9.0,19.0,45,0.00,,,0.00,meteohub,2013-04-23 01:52:00,
2013-04-22 21:57:00,50.4,29.8,30.29,SE,129,7.0,15.0,45,0.00,,,0.00,meteohub,2013-04-23 01:57:00,
2013-04-22 22:02:00,50.4,29.8,30.29,SSE,159,6.0,20.0,45,0.00,,,0.00,meteohub,2013-04-23 02:02:00,
2013-04-22 22:07:00,50.2,30.2,30.29,ESE,103,6.0,20.0,46,0.00,,,0.00,meteohub,2013-04-23 02:07:00,
2013-04-22 22:12:00,50.2,30.2,30.29,East,86,8.0,20.0,46,0.00,,,0.00,meteohub,2013-04-23 02:12:00,
2013-04-22 22:17:00,49.8,29.8,30.30,East,86,8.0,16.0,46,0.00,,,0.00,meteohub,2013-04-23 02:17:00,
2013-04-22 22:22:00,49.8,29.8,30.29,SE,139,8.0,16.0,46,0.00,,,0.00,meteohub,2013-04-23 02:22:00,
2013-04-22 22:27:00,49.8,30.4,30.29,East,79,9.0,15.0,47,0.00,,,0.00,meteohub,2013-04-23 02:27:00,
2013-04-22 22:32:00,49.6,30.7,30.29,SE,143,3.0,14.0,48,0.00,,,0.00,meteohub,2013-04-23 02:32:00,
2013-04-22 22:37:00,49.5,30.6,30.29,SE,124,9.0,14.0,48,0.00,,,0.00,meteohub,2013-04-23 02:37:00,
2013-04-22 22:42:00,49.5,30.6,30.29,ESE,104,2.0,15.0,48,0.00,,,0.00,meteohub,2013-04-23 02:42:00,
2013-04-22 22:47:00,49.3,30.4,30.29,South,179,4.0,15.0,48,0.00,,,0.00,meteohub,2013-04-23 02:47:00,
2013-04-22 22:52:00,49.1,30.7,30.29,SE,130,5.0,15.0,49,0.00,,,0.00,meteohub,2013-04-23 02:52:00,
2013-04-22 22:57:00,48.7,30.4,30.29,East,89,5.0,14.0,49,0.00,,,0.00,meteohub,2013-04-23 02:57:00,
2013-04-22 23:02:00,48.7,30.9,30.29,East,100,5.0,14.0,50,0.00,,,0.00,meteohub,2013-04-23 03:02:00,
2013-04-22 23:07:00,48.6,30.7,30.29,ESE,108,10.0,13.0,50,0.00,,,0.00,meteohub,2013-04-23 03:07:00,
2013-04-22 23:12:00,48.4,30.6,30.28,ESE,110,15.0,15.0,50,0.00,,,0.00,meteohub,2013-04-23 03:12:00,
2013-04-22 23:17:00,48.2,30.9,30.29,South,191,10.0,16.0,51,0.00,,,0.00,meteohub,2013-04-23 03:17:00,
2013-04-22 23:22:00,48.0,31.3,30.29,SE,124,5.0,16.0,52,0.00,,,0.00,meteohub,2013-04-23 03:22:00,
2013-04-22 23:27:00,48.0,31.3,30.28,ESE,105,3.0,16.0,52,0.00,,,0.00,meteohub,2013-04-23 03:27:00,
2013-04-22 23:32:00,47.8,31.1,30.28,SE,139,3.0,15.0,52,0.00,,,0.00,meteohub,2013-04-23 03:32:00,
2013-04-22 23:38:00,47.8,31.1,30.28,East,93,5.0,15.0,52,0.00,,,0.00,meteohub,2013-04-23 03:38:00,
2013-04-22 23:43:00,47.8,31.5,30.28,East,84,7.0,16.0,53,0.00,,,0.00,meteohub,2013-04-23 03:43:00,
2013-04-22 23:48:00,47.7,31.3,30.28,ENE,77,9.0,16.0,53,0.00,,,0.00,meteohub,2013-04-23 03:48:00,
2013-04-22 23:53:00,47.7,31.3,30.28,East,80,8.0,18.0,53,0.00,,,0.00,meteohub,2013-04-23 03:53:00,
2013-04-22 23:58:00,47.5,31.6,30.28,SE,134,5.0,18.0,54,0.00,,,0.00,meteohub,2013-04-23 03:58:00,